Location: Tel Aviv
(32.0670°N, 34.7670°E)
Time: 12:01:31
(UTC+03:00)

Explorer 11/Cluster Stage 4 - Pass Details

Date: 18 September 2024
Orbit: 464 x 1208 km, 28.8° (Epoch: 06 October)

Event Time Altitude Azimuth Distance (km) Brightness Sun altitude
Rises 09:17:55 0° 272° (W) 3,691 9.6 34.6°
Reaches altitude 10° 09:20:29 10° 268° (W) 2,837 9.1 35.1°
Maximum altitude 09:27:30 59° 191° (S) 1,304 8.4 36.5°
Drops below altitude 10° 09:35:16 10° 114° (ESE) 3,137 11.0 38.0°
Sets 09:38:14 0° 111° (ESE) 4,104 11.2 38.5°
